TimeEDT,TemperatureF,Dew PointF,Humidity,Sea Level PressureIn,VisibilityMPH,Wind Direction,Wind SpeedMPH,Gust SpeedMPH,PrecipitationIn,Events,Conditions,WindDirDegrees,DateUTC
12:15 AM,35.6,28.4,75,30.00,10.0,West,3.5,-,N/A,,Clear,270,2013-05-14 04:15:00
12:35 AM,35.6,28.4,75,30.00,10.0,West,4.6,-,N/A,,Clear,270,2013-05-14 04:35:00
12:55 AM,33.8,30.2,87,30.00,10.0,West,3.5,-,N/A,,Mostly Cloudy,280,2013-05-14 04:55:00
1:15 AM,35.6,30.2,81,30.00,10.0,West,3.5,-,N/A,,Overcast,280,2013-05-14 05:15:00
1:35 AM,35.6,30.2,81,30.01,10.0,Calm,Calm,-,N/A,,Overcast,0,2013-05-14 05:35:00
1:55 AM,37.4,28.4,70,30.01,10.0,West,3.5,-,N/A,,Overcast,260,2013-05-14 05:55:00
2:15 AM,37.4,30.2,75,30.01,10.0,Calm,Calm,-,N/A,,Overcast,0,2013-05-14 06:15:00
2:35 AM,37.4,33.8,87,30.01,10.0,Calm,Calm,-,N/A,,Overcast,0,2013-05-14 06:35:00
2:55 AM,37.4,32.0,81,30.00,10.0,NNW,4.6,-,N/A,,Partly Cloudy,330,2013-05-14 06:55:00
3:15 AM,37.4,30.2,75,30.00,10.0,NNW,4.6,-,N/A,,Clear,340,2013-05-14 07:15:00
3:35 AM,33.8,26.6,75,30.00,10.0,WNW,3.5,-,N/A,,Clear,300,2013-05-14 07:35:00
4:15 AM,30.2,26.6,86,30.00,10.0,NW,3.5,-,N/A,,Clear,320,2013-05-14 08:15:00
4:35 AM,30.2,26.6,86,30.00,10.0,NE,3.5,-,N/A,,Clear,40,2013-05-14 08:35:00
4:55 AM,30.2,24.8,80,30.00,10.0,West,3.5,-,N/A,,Clear,270,2013-05-14 08:55:00
5:15 AM,30.2,24.8,80,30.01,10.0,WNW,3.5,-,N/A,,Clear,300,2013-05-14 09:15:00
5:35 AM,30.2,24.8,80,30.02,10.0,WNW,3.5,-,N/A,,Clear,290,2013-05-14 09:35:00
5:55 AM,33.8,28.4,81,30.02,10.0,NW,3.5,-,N/A,,Mostly Cloudy,310,2013-05-14 09:55:00
6:15 AM,37.4,30.2,75,30.02,10.0,NW,3.5,-,N/A,,Overcast,310,2013-05-14 10:15:00
6:35 AM,39.2,30.2,70,30.03,10.0,NW,3.5,-,N/A,,Overcast,320,2013-05-14 10:35:00
6:55 AM,41.0,32.0,70,30.03,10.0,NNW,4.6,-,N/A,,Overcast,330,2013-05-14 10:55:00
7:15 AM,42.8,30.2,61,30.03,10.0,NNW,3.5,-,N/A,,Overcast,330,2013-05-14 11:15:00
7:35 AM,42.8,32.0,66,30.03,10.0,WNW,3.5,-,N/A,,Mostly Cloudy,300,2013-05-14 11:35:00
7:55 AM,46.4,32.0,57,30.03,10.0,NW,8.1,-,N/A,,Partly Cloudy,310,2013-05-14 11:55:00
8:15 AM,46.4,28.4,50,30.03,10.0,NW,4.6,-,N/A,,Clear,320,2013-05-14 12:15:00
8:35 AM,48.2,28.4,46,30.03,10.0,NNW,10.4,16.1,N/A,,Clear,340,2013-05-14 12:35:00
8:55 AM,50.0,24.8,37,30.03,10.0,NW,10.4,-,N/A,,Clear,320,2013-05-14 12:55:00
9:15 AM,50.0,24.8,37,30.02,10.0,NW,9.2,16.1,N/A,,Clear,320,2013-05-14 13:15:00
9:35 AM,51.8,24.8,35,30.02,10.0,NW,12.7,-,N/A,,Clear,320,2013-05-14 13:35:00
9:55 AM,51.8,24.8,35,30.01,10.0,NW,12.7,16.1,N/A,,Clear,310,2013-05-14 13:55:00
10:15 AM,51.8,24.8,35,30.00,10.0,NW,10.4,16.1,N/A,,Clear,320,2013-05-14 14:15:00
10:35 AM,53.6,24.8,33,30.00,10.0,WNW,11.5,16.1,N/A,,Clear,300,2013-05-14 14:35:00
10:55 AM,53.6,24.8,33,29.99,10.0,NNW,10.4,-,N/A,,Scattered Clouds,340,2013-05-14 14:55:00
11:15 AM,55.4,24.8,31,29.99,10.0,NW,6.9,-,N/A,,Scattered Clouds,320,2013-05-14 15:15:00
11:35 AM,53.6,21.2,28,29.99,10.0,NW,4.6,19.6,N/A,,Mostly Cloudy,320,2013-05-14 15:35:00
11:55 AM,55.4,21.2,26,29.98,10.0,West,9.2,-,N/A,,Mostly Cloudy,280,2013-05-14 15:55:00
12:15 PM,55.4,24.8,31,29.98,10.0,West,8.1,-,N/A,,Scattered Clouds,260,2013-05-14 16:15:00
12:35 PM,57.2,23.0,27,29.98,10.0,WNW,11.5,19.6,N/A,,Scattered Clouds,290,2013-05-14 16:35:00
12:55 PM,57.2,23.0,27,29.97,10.0,North,3.5,17.3,N/A,,Mostly Cloudy,360,2013-05-14 16:55:00
1:15 PM,55.4,23.0,29,29.97,10.0,West,9.2,20.7,N/A,,Mostly Cloudy,280,2013-05-14 17:15:00
1:35 PM,57.2,21.2,25,29.96,10.0,NW,5.8,-,N/A,,Overcast,320,2013-05-14 17:35:00
1:55 PM,57.2,21.2,25,29.97,10.0,WNW,8.1,-,N/A,,Overcast,290,2013-05-14 17:55:00
2:15 PM,59.0,23.0,25,29.96,10.0,NW,10.4,17.3,N/A,,Overcast,320,2013-05-14 18:15:00
2:35 PM,57.2,21.2,25,29.96,10.0,West,10.4,18.4,N/A,,Overcast,270,2013-05-14 18:35:00
2:55 PM,57.2,23.0,27,29.96,10.0,NW,10.4,17.3,N/A,,Overcast,320,2013-05-14 18:55:00
3:15 PM,57.2,21.2,25,29.95,10.0,West,8.1,-,N/A,,Overcast,280,2013-05-14 19:15:00
3:35 PM,57.2,23.0,27,29.95,10.0,WNW,10.4,-,N/A,,Overcast,300,2013-05-14 19:35:00
3:55 PM,57.2,21.2,25,29.94,10.0,WNW,8.1,-,N/A,,Overcast,290,2013-05-14 19:55:00
4:15 PM,55.4,28.4,36,29.94,10.0,ESE,4.6,-,N/A,,Overcast,120,2013-05-14 20:15:00
4:35 PM,53.6,32.0,44,29.94,10.0,ESE,6.9,-,N/A,,Overcast,120,2013-05-14 20:35:00
4:55 PM,53.6,30.2,41,29.95,10.0,ESE,9.2,-,N/A,,Overcast,110,2013-05-14 20:55:00
5:15 PM,53.6,30.2,41,29.95,10.0,ESE,10.4,-,N/A,,Mostly Cloudy,110,2013-05-14 21:15:00
5:35 PM,51.8,30.2,44,29.95,10.0,ESE,6.9,-,N/A,,Overcast,110,2013-05-14 21:35:00
5:55 PM,51.8,30.2,44,29.95,10.0,ESE,4.6,-,N/A,,Overcast,110,2013-05-14 21:55:00
6:15 PM,51.8,32.0,47,29.95,10.0,SE,4.6,-,N/A,,Overcast,130,2013-05-14 22:15:00
6:35 PM,51.8,30.2,44,29.95,10.0,ESE,3.5,-,N/A,,Overcast,120,2013-05-14 22:35:00
6:55 PM,51.8,32.0,47,29.96,10.0,Calm,Calm,-,N/A,,Overcast,0,2013-05-14 22:55:00
7:15 PM,50.0,33.8,54,29.96,10.0,Calm,Calm,-,N/A,,Overcast,0,2013-05-14 23:15:00
7:35 PM,50.0,33.8,54,29.97,10.0,Calm,Calm,-,N/A,,Overcast,0,2013-05-14 23:35:00
7:55 PM,48.2,35.6,62,29.98,10.0,ENE,3.5,-,N/A,,Overcast,60,2013-05-14 23:55:00
8:15 PM,48.2,35.6,62,29.98,10.0,Calm,Calm,-,N/A,,Overcast,0,2013-05-15 00:15:00
8:35 PM,48.2,37.4,66,29.99,10.0,WNW,4.6,-,N/A,,Overcast,290,2013-05-15 00:35:00
8:55 PM,46.4,37.4,71,30.00,10.0,West,5.8,-,N/A,,Overcast,280,2013-05-15 00:55:00
9:15 PM,46.4,35.6,66,30.01,10.0,Calm,Calm,-,N/A,,Overcast,0,2013-05-15 01:15:00
9:35 PM,46.4,37.4,71,30.02,10.0,Calm,Calm,-,N/A,,Overcast,0,2013-05-15 01:35:00
9:55 PM,44.6,37.4,76,30.02,10.0,Calm,Calm,-,N/A,,Overcast,0,2013-05-15 01:55:00
10:15 PM,44.6,37.4,76,30.02,10.0,WSW,3.5,-,N/A,,Overcast,250,2013-05-15 02:15:00
10:35 PM,44.6,37.4,76,30.02,10.0,Calm,Calm,-,N/A,,Overcast,0,2013-05-15 02:35:00
10:55 PM,44.6,37.4,76,30.02,10.0,Calm,Calm,-,N/A,,Overcast,0,2013-05-15 02:55:00
11:15 PM,42.8,37.4,81,30.02,10.0,Calm,Calm,-,N/A,,Overcast,0,2013-05-15 03:15:00
11:35 PM,42.8,37.4,81,30.02,10.0,WSW,4.6,-,N/A,,Overcast,240,2013-05-15 03:35:00
11:55 PM,41.0,37.4,87,30.02,10.0,WSW,3.5,-,N/A,,Overcast,250,2013-05-15 03:55:00